Location: Asheville, NC
(35.6000°N, 82.5500°W)
Time: 16:47:48
(UTC-05:00)

Vanguard 2 Rocket - Pass Details

Date: 17 February 2018
Orbit: 555 x 3327 km, 32.9° (Epoch: 17 February)

Event Time Altitude Azimuth Distance (km) Brightness Sun altitude
Rises 00:33:19 0° 246° (WSW) 5,491 - -66.3°
Reaches altitude 10° 00:36:23 10° 245° (WSW) 4,793 - -66.3°
Maximum altitude 00:51:26 74° 163° (SSE) 3,118 - -66.3°
Exits shadow 01:05:39 26° 86° (E) 5,043 10.5 -65.9°
Drops below altitude 10° 01:11:54 10° 84° (E) 6,242 11.2 -65.6°
Sets 01:16:33 0° 83° (E) 7,152 11.6 -65.3°
